This is the latest recevied weather packets stored in our database for station/object JE3XST-13. If no packets are shown the sender has not sent any weather packets the latest 10 day(s).
| Time | Temp. | Humidity | Pressure | Rain* | Wind** | Luminosity | Snow |
|---|---|---|---|---|---|---|---|
| 1777475726 | 13.33° C | 76% | 1018.6 hPa | 0 mm | - | - | - |
| 1777473926 | 13.33° C | 75% | 1018.6 hPa | 0 mm | - | - | - |
| 1777472126 | 13.89° C | 73% | 1018.5 hPa | 0 mm | - | - | - |
| 1777470326 | 14.44° C | 71% | 1018.5 hPa | 0 mm | - | - | - |
| 1777468526 | 14.44° C | 70% | 1018.5 hPa | 0 mm | - | - | - |
| 1777466726 | 14.44° C | 70% | 1018.5 hPa | 0 mm | - | - | - |
| 1777464926 | 14.44° C | 70% | 1018.4 hPa | 0 mm | - | - | - |
| 1777463125 | 15° C | 69% | 1018.2 hPa | 0 mm | - | - | - |
| 1777461324 | 15° C | 68% | 1017.9 hPa | 0 mm | - | - | - |
| 1777459525 | 15° C | 69% | 1017.6 hPa | 0 mm | - | - | - |
| 1777458208 | 15.56° C | 69% | 1017.1 hPa | 0 mm | - | - | - |
| 1777456408 | 15.56° C | 68% | 1016.8 hPa | 0 mm | - | - | - |
| 1777454607 | 16.11° C | 67% | 1016.5 hPa | 0 mm | - | - | - |
| 1777452808 | 16.11° C | 66% | 1016.6 hPa | 0 mm | - | - | - |
| 1777451009 | 16.67° C | 65% | 1016 hPa | 0 mm | - | - | - |
| 1777449208 | 16.67° C | 64% | 1015.6 hPa | 0 mm | - | - | - |
| 1777447407 | 17.22° C | 66% | 1015.5 hPa | 0 mm | - | - | - |
| 1777445607 | 16.67° C | 67% | 1015.5 hPa | 0 mm | - | - | - |
| 1777443808 | 16.67° C | 67% | 1015.2 hPa | 0 mm | - | - | - |
| 1777442009 | 16.67° C | 67% | 1015.3 hPa | 0 mm | - | - | - |
| 1777440207 | 16.67° C | 68% | 1015.5 hPa | 0 mm | - | - | - |
| 1777438407 | 17.22° C | 66% | 1015.4 hPa | 0 mm | - | - | - |
| 1777436608 | 17.22° C | 66% | 1015.5 hPa | 0 mm | - | - | - |
| 1777434807 | 17.78° C | 65% | 1015.4 hPa | 0 mm | - | - | - |
| 1777433008 | 17.78° C | 66% | 1015.3 hPa | 0 mm | - | - | - |
* Rain latest hour (hover to see other rain measurements)
** Current wind speed in m/s (hover to see current wind gust speed)